Location: Barnes
(31.4679°N, 85.1188°W)
Time: 13:23:40
(UTC+00:00)

Daily predictions for brighter satellites

Satellite Brightness Start Highest point End
(mag) Time Altitude Azimuth Time Altitude Azimuth Time Altitude Azimuth
ALOS 4.3 22:59:42 10° SSW 23:03:55 34° W 23:08:09 10° NNW
Cosmos 1656 3.7 23:02:24 10° SSW 23:07:58 84° ESE 23:13:30 10° NNE
Cosmos 1869 3.2 23:04:18 10° S 23:08:13 73° E 23:12:10 10° N
Envisat 3.8 23:04:12 10° SE 23:08:33 29° ENE 23:12:54 10° NNE
Lacrosse 4 Rocket 1.4 23:05:24 10° SSW 23:09:26 61° ESE 23:13:27 10° NNE
ERBS 3.6 23:07:10 10° WSW 23:10:16 37° NW 23:13:23 10° NNE
SMAP 3.0 23:06:39 10° SSE 23:11:16 71° ENE 23:15:55 10° N
Cosmos 2221 4.2 23:10:25 10° SSW 23:14:23 37° W 23:18:24 10° NNW
SeaSat 1 3.3 23:12:23 10° ESE 23:16:33 28° ENE 23:20:44 10° N
YAOGAN 1 4.1 23:16:43 10° ESE 23:19:10 15° ENE 23:21:37 10° NNE
CZ-4 R/B 2.7 23:17:42 10° ESE 23:20:44 20° ENE 23:23:44 10° NNE
Cosmos 1607 4.3 23:15:58 10° NNW 23:21:50 41° ENE 23:27:43 10° SE
OE (NEXTSAT) 4.4 23:22:01 10° NW 23:25:30 81° SW 23:28:57 10° SE
NOSS 2-3 (E) 3.5 23:21:37 10° SSW 23:25:49 75° ESE 23:30:24 10° NNE
ATLAS 5 CENTAUR R/B 3.3 23:24:01 10° SSW 23:27:09 22° SSE 23:34:11 10° ESE
NOSS 3-1 (A) 3.7 23:28:00 10° SW 23:33:15 62° WNW 23:39:11 10° NNE
H-2A R/B 3.2 23:30:03 10° S 23:33:52 65° W 23:37:42 10° NNW
Cosmos 2219 3.2 23:29:16 10° NNW 23:34:53 88° ENE 23:40:30 10° SSE
CSL-04 Rocket 4.5 23:30:47 10° SE 23:35:15 27° ENE 23:39:41 10° NNE
NOSS 2-3 (D) 3.5 23:31:03 10° SSW 23:35:17 88° ESE 23:39:54 10° NNE
USA 40 PKM 4.3 23:32:00 10° NNW 23:36:17 60° NE 23:39:36 10° SE
Okean-O 2.5 23:31:54 10° SSE 23:36:19 78° ENE 23:40:45 10° N
Cosmos 2112 Rocket 4.1 23:33:18 10° S 23:38:19 53° ESE 23:43:23 10° NNE
Cosmos 1980 Rocket 2.5 23:37:10 10° S 23:42:31 46° ESE 23:47:51 10° NNE
Cosmos 1680 Rocket 3.4 23:40:16 10° S 23:45:27 78° ESE 23:50:40 10° NNE
SKYMED 2 3.6 23:42:38 10° N 23:47:00 87° W 23:51:19 10° SSW
Cosmos 1933 4.4 23:45:57 10° SE 23:49:18 25° E 23:49:23 25° E
Cosmos 158 Rocket 4.4 23:45:42 10° S 23:50:44 43° ESE 23:54:42 15° NE
BREEZE-M R/B 4.0 23:47:53 10° SSW 23:53:55 34° SE 23:55:24 26° E
Cosmos 2227 Rocket 2.1 23:48:25 10° NNW 23:54:06 76° ENE 23:59:43 10° SSE
Cosmos 2297 Rocket 2.1 23:48:28 10° NNW 23:54:09 83° ENE 23:59:47 10° SSE
